Voltar ao catálogo

SL-14 DEB

AtivoPO
NORAD 19138·DEBRIS·🇷🇺 Russia

Lançado Oct 26, 1978 de Plesetsk Cosmodrome

Loading…

Próximas Passagens (próximas 24 horas)

TLE

AtualizadoSource: Space-Track

Época: Sep 14, 2026, 14:19 UTC

1 19138U 78100L   26257.59671448  .00000142  00000-0  10832-2 0  9997
2 19138  82.3077 313.6181 0162447 328.9269 186.4516 12.30619493718798

Acompanhe SL-14 DEB em tempo real com AllMySat

Download on the App Store